SWA1718 KHOU-KTUL

Flight info

Callsign SWA1718
Flight time 1h 8m
Altitude 34000
Route STYCK8 WTSON BYP TUL
Aircraft B738/M-SDE2E3GIJ4RWZ/LB1D1

Departure

Time 2026-05-08 01:38
Airport William P. Hobby Airport (KHOU)

Arrival

Time 2026-05-08 02:46
Airport Tulsa International Airport (KTUL)
Time Latitude Longitude Altitude Speed Heading
2026-05-08 00:36 29.65203 -95.27816 49 ft 0 kts 356°
2026-05-08 01:30 29.65193 -95.27815 51 ft 4 kts
2026-05-08 01:30 29.65167 -95.27818 51 ft 3 kts
2026-05-08 01:30 29.65145 -95.27818 49 ft 4 kts
2026-05-08 01:31 29.65130 -95.27818 51 ft 1 kts 360°
2026-05-08 01:33 29.65135 -95.27818 51 ft 2 kts
2026-05-08 01:33 29.65149 -95.27784 47 ft 8 kts 101°
2026-05-08 01:33 29.65137 -95.27685 51 ft 16 kts 99°
2026-05-08 01:34 29.65036 -95.27651 51 ft 17 kts 187°
2026-05-08 01:34 29.64939 -95.27722 50 ft 18 kts 225°
2026-05-08 01:34 29.64831 -95.27844 48 ft 24 kts 224°
2026-05-08 01:34 29.64712 -95.27972 50 ft 23 kts 222°
2026-05-08 01:35 29.64599 -95.28096 50 ft 22 kts 224°
2026-05-08 01:35 29.64489 -95.28218 51 ft 22 kts 224°
2026-05-08 01:35 29.64382 -95.28336 50 ft 21 kts 224°
2026-05-08 01:35 29.64281 -95.28453 49 ft 20 kts 222°
2026-05-08 01:36 29.64180 -95.28562 51 ft 20 kts 221°
2026-05-08 01:36 29.64085 -95.28658 51 ft 16 kts 196°
2026-05-08 01:36 29.64018 -95.28640 51 ft 15 kts 147°
2026-05-08 01:36 29.63944 -95.28556 51 ft 13 kts 130°
2026-05-08 01:37 29.63956 -95.28482 51 ft 15 kts 45°
2026-05-08 01:37 29.64166 -95.28252 51 ft 77 kts 45°
2026-05-08 01:37 29.64720 -95.27644 50 ft 140 kts 44°
2026-05-08 01:37 29.65473 -95.26783 565 ft 149 kts 49°
2026-05-08 01:38 29.66114 -95.25853 1303 ft 157 kts 56°
2026-05-08 01:38 29.66495 -95.24677 1982 ft 156 kts 99°
2026-05-08 01:38 29.66394 -95.23476 2786 ft 155 kts 83°
2026-05-08 01:38 29.66548 -95.22218 3398 ft 163 kts 77°
2026-05-08 01:39 29.66974 -95.21011 4094 ft 168 kts 62°
2026-05-08 01:39 29.67728 -95.19943 4646 ft 185 kts 41°
2026-05-08 01:39 29.68813 -95.18972 4947 ft 211 kts 38°
2026-05-08 01:39 29.70065 -95.17886 4994 ft 236 kts 36°
2026-05-08 01:40 29.71598 -95.17264 4984 ft 239 kts
2026-05-08 01:40 29.73251 -95.17525 4991 ft 242 kts 338°
2026-05-08 01:40 29.74763 -95.18370 5015 ft 246 kts 333°
2026-05-08 01:40 29.76331 -95.19292 5034 ft 257 kts 333°
2026-05-08 01:41 29.77984 -95.20266 5287 ft 277 kts 333°
2026-05-08 01:41 29.79717 -95.21290 6046 ft 282 kts 333°
2026-05-08 01:41 29.81470 -95.22329 6874 ft 284 kts 333°
2026-05-08 01:41 29.83233 -95.23374 7653 ft 288 kts 332°
2026-05-08 01:42 29.85027 -95.24423 8462 ft 290 kts 332°
2026-05-08 01:42 29.86845 -95.25463 9282 ft 293 kts 332°
2026-05-08 01:42 29.88683 -95.26499 10092 ft 296 kts 332°
2026-05-08 01:42 29.90542 -95.27532 10866 ft 298 kts 332°
2026-05-08 01:43 29.92428 -95.28547 11686 ft 299 kts 332°
2026-05-08 01:43 29.94338 -95.29563 12285 ft 310 kts 329°
2026-05-08 01:43 29.96308 -95.30780 12466 ft 333 kts 327°
2026-05-08 01:43 29.98371 -95.32167 12696 ft 352 kts 324°
2026-05-08 01:44 30.00457 -95.33704 13287 ft 358 kts 323°
2026-05-08 01:44 30.02552 -95.35267 14033 ft 359 kts 323°
2026-05-08 01:44 30.04664 -95.36825 14730 ft 361 kts 322°
2026-05-08 01:44 30.06799 -95.38381 15422 ft 365 kts 322°
2026-05-08 01:45 30.08956 -95.39947 16113 ft 368 kts 322°
2026-05-08 01:45 30.11215 -95.41400 16826 ft 374 kts 326°
2026-05-08 01:45 30.13560 -95.42728 17521 ft 378 kts 327°
2026-05-08 01:45 30.15955 -95.44042 18175 ft 382 kts 327°
2026-05-08 01:46 30.18361 -95.45358 18732 ft 385 kts 327°
2026-05-08 01:46 30.20792 -95.46705 19287 ft 388 kts 326°
2026-05-08 01:46 30.23234 -95.48072 19836 ft 391 kts 326°
2026-05-08 01:46 30.25689 -95.49454 20383 ft 394 kts 326°
2026-05-08 01:47 30.28169 -95.50853 20936 ft 398 kts 326°
2026-05-08 01:47 30.30668 -95.52265 21462 ft 401 kts 326°
2026-05-08 01:47 30.33190 -95.53691 21997 ft 404 kts 326°
2026-05-08 01:48 30.38289 -95.56568 23071 ft 410 kts 326°
2026-05-08 01:48 30.40864 -95.58015 23569 ft 412 kts 326°
2026-05-08 01:48 30.43447 -95.59484 23934 ft 415 kts 326°
2026-05-08 01:48 30.46046 -95.60960 24352 ft 417 kts 326°
2026-05-08 01:49 30.48665 -95.62442 24816 ft 418 kts 326°
2026-05-08 01:49 30.51281 -95.63927 25261 ft 420 kts 325°
2026-05-08 01:49 30.53914 -95.65420 25687 ft 422 kts 326°
2026-05-08 01:49 30.56580 -95.66878 26074 ft 426 kts 327°
2026-05-08 01:50 30.59285 -95.68319 26454 ft 429 kts 327°
2026-05-08 01:50 30.62015 -95.69762 26823 ft 432 kts 327°
2026-05-08 01:50 30.64759 -95.71214 27198 ft 434 kts 327°
2026-05-08 01:50 30.67509 -95.72672 27544 ft 436 kts 327°
2026-05-08 01:51 30.70285 -95.74150 27873 ft 439 kts 326°
2026-05-08 01:51 30.73064 -95.75636 28222 ft 441 kts 326°
2026-05-08 01:51 30.75869 -95.77140 28568 ft 444 kts 326°
2026-05-08 01:51 30.78679 -95.78647 28915 ft 446 kts 326°
2026-05-08 01:52 30.81510 -95.80166 29233 ft 449 kts 326°
2026-05-08 01:52 30.84322 -95.81675 29544 ft 452 kts 326°
2026-05-08 01:52 30.87223 -95.83232 29897 ft 454 kts 326°
2026-05-08 01:52 30.90091 -95.84772 30242 ft 455 kts 326°
2026-05-08 01:53 30.92966 -95.86316 30616 ft 454 kts 326°
2026-05-08 01:53 30.95826 -95.87852 31051 ft 452 kts 326°
2026-05-08 01:53 30.98674 -95.89383 31475 ft 450 kts 325°
2026-05-08 01:53 31.01469 -95.90890 31841 ft 449 kts 325°
2026-05-08 01:54 31.04307 -95.92423 32199 ft 449 kts 325°
2026-05-08 01:54 31.07139 -95.93951 32605 ft 447 kts 325°
2026-05-08 01:54 31.09955 -95.95470 33032 ft 445 kts 325°
2026-05-08 01:54 31.12843 -95.96849 33421 ft 453 kts 331°
2026-05-08 01:55 31.15941 -95.97761 33764 ft 463 kts 338°
2026-05-08 01:55 31.19110 -95.98479 34068 ft 465 kts 339°
2026-05-08 01:55 31.25498 -95.99833 34053 ft 465 kts 339°
2026-05-08 01:56 31.31842 -96.01205 34055 ft 463 kts 339°
2026-05-08 01:56 31.38155 -96.02623 34051 ft 461 kts 339°
2026-05-08 01:57 31.44447 -96.04057 34059 ft 461 kts 339°
2026-05-08 01:57 31.50752 -96.05497 34060 ft 462 kts 339°
2026-05-08 01:58 31.57058 -96.06937 34071 ft 462 kts 339°
2026-05-08 01:58 31.63366 -96.08378 34065 ft 463 kts 339°
2026-05-08 01:59 31.69696 -96.09825 34064 ft 463 kts 339°
2026-05-08 01:59 31.76019 -96.11272 34069 ft 463 kts 339°
2026-05-08 02:00 31.82307 -96.12716 34071 ft 464 kts 339°
2026-05-08 02:00 31.88643 -96.14170 34063 ft 464 kts 339°
2026-05-08 02:01 31.94973 -96.15625 34059 ft 463 kts 339°
2026-05-08 02:01 32.01298 -96.17081 34066 ft 463 kts 338°
2026-05-08 02:02 32.07628 -96.18541 34074 ft 463 kts 338°
2026-05-08 02:02 32.13955 -96.20003 34078 ft 463 kts 338°
2026-05-08 02:03 32.20356 -96.21241 34059 ft 475 kts 347°
2026-05-08 02:03 32.27004 -96.21398 34068 ft 480 kts 350°
2026-05-08 02:04 32.33683 -96.21411 34058 ft 480 kts 350°
2026-05-08 02:04 32.40365 -96.21469 34056 ft 479 kts 349°
2026-05-08 02:05 32.47038 -96.21571 34053 ft 479 kts 349°
2026-05-08 02:05 32.53713 -96.21687 34054 ft 480 kts 349°
2026-05-08 02:06 32.60394 -96.21804 34053 ft 480 kts 349°
2026-05-08 02:06 32.67041 -96.21915 34051 ft 480 kts 349°
2026-05-08 02:07 32.73778 -96.22031 34046 ft 481 kts 349°
2026-05-08 02:07 32.80429 -96.22145 34048 ft 482 kts 349°
2026-05-08 02:08 32.87144 -96.22257 34050 ft 483 kts 349°
2026-05-08 02:08 32.93865 -96.22373 34056 ft 483 kts 349°
2026-05-08 02:09 33.00596 -96.22488 34060 ft 484 kts 349°
2026-05-08 02:09 33.07331 -96.22605 34062 ft 484 kts 348°
2026-05-08 02:10 33.14069 -96.22722 34053 ft 485 kts 348°
2026-05-08 02:10 33.20834 -96.22838 34058 ft 486 kts 348°
2026-05-08 02:11 33.27604 -96.22955 34057 ft 487 kts 348°
2026-05-08 02:11 33.34384 -96.23068 34058 ft 488 kts 348°
2026-05-08 02:12 33.41177 -96.23185 34054 ft 488 kts 348°
2026-05-08 02:12 33.47958 -96.23301 34045 ft 487 kts 348°
2026-05-08 02:13 33.54757 -96.23300 34041 ft 495 kts 354°
2026-05-08 02:13 33.61654 -96.22283 34045 ft 501 kts 357°
2026-05-08 02:14 33.68562 -96.21069 34059 ft 503 kts 357°
2026-05-08 02:14 33.75486 -96.19868 34065 ft 503 kts 357°
2026-05-08 02:15 33.82421 -96.18715 34070 ft 502 kts 356°
2026-05-08 02:15 33.89331 -96.17581 34072 ft 501 kts 356°
2026-05-08 02:16 33.96235 -96.16455 34065 ft 500 kts 356°
2026-05-08 02:16 34.03117 -96.15327 34066 ft 499 kts 355°
2026-05-08 02:17 34.09994 -96.14196 34056 ft 498 kts 355°
2026-05-08 02:17 34.16855 -96.13065 34054 ft 498 kts 355°
2026-05-08 02:18 34.22568 -96.12123 34050 ft 498 kts 355°
2026-05-08 02:18 34.30543 -96.10808 34047 ft 497 kts 355°
2026-05-08 02:19 34.33982 -96.10241 33635 ft 502 kts 355°
2026-05-08 02:19 34.36323 -96.09857 33197 ft 501 kts 355°
2026-05-08 02:19 34.39770 -96.09284 32414 ft 502 kts 355°
2026-05-08 02:19 34.43246 -96.08710 31665 ft 502 kts 355°
2026-05-08 02:20 34.46689 -96.08135 31095 ft 498 kts 355°
2026-05-08 02:20 34.50101 -96.07559 30556 ft 492 kts 356°
2026-05-08 02:20 34.53481 -96.06989 30016 ft 487 kts 356°
2026-05-08 02:20 34.56818 -96.06428 29401 ft 481 kts 356°
2026-05-08 02:21 34.60107 -96.05878 28815 ft 474 kts 356°
2026-05-08 02:21 34.63317 -96.05343 28266 ft 469 kts 356°
2026-05-08 02:21 34.66521 -96.04809 27733 ft 462 kts 357°
2026-05-08 02:21 34.69689 -96.04280 27198 ft 456 kts 357°
2026-05-08 02:22 34.72816 -96.03755 26666 ft 451 kts 358°
2026-05-08 02:22 34.75909 -96.03238 26145 ft 446 kts 358°
2026-05-08 02:22 34.78962 -96.02731 25622 ft 441 kts 358°
2026-05-08 02:22 34.81991 -96.02228 25111 ft 436 kts 359°
2026-05-08 02:23 34.84982 -96.01731 24576 ft 432 kts 359°
2026-05-08 02:23 34.87947 -96.01236 24067 ft 427 kts 360°
2026-05-08 02:23 34.90888 -96.00747 23526 ft 425 kts
2026-05-08 02:23 34.93801 -96.00258 22933 ft 421 kts
2026-05-08 02:24 34.96685 -95.99771 22393 ft 416 kts
2026-05-08 02:24 34.99529 -95.99292 21867 ft 411 kts
2026-05-08 02:24 35.02343 -95.98819 21361 ft 406 kts
2026-05-08 02:24 35.05131 -95.98349 20856 ft 401 kts
2026-05-08 02:25 35.07885 -95.97885 20362 ft 397 kts
2026-05-08 02:25 35.10611 -95.97427 19879 ft 394 kts
2026-05-08 02:25 35.13316 -95.96972 19393 ft 390 kts
2026-05-08 02:25 35.15997 -95.96520 18896 ft 388 kts
2026-05-08 02:26 35.18661 -95.96071 18395 ft 386 kts
2026-05-08 02:26 35.21314 -95.95624 17848 ft 383 kts
2026-05-08 02:26 35.23944 -95.95179 17342 ft 380 kts
2026-05-08 02:26 35.26552 -95.94738 16846 ft 376 kts
2026-05-08 02:27 35.29133 -95.94301 16361 ft 373 kts
2026-05-08 02:27 35.31696 -95.93866 15880 ft 370 kts
2026-05-08 02:27 35.34240 -95.93435 15409 ft 367 kts
2026-05-08 02:27 35.36764 -95.93007 14946 ft 365 kts
2026-05-08 02:28 35.39270 -95.92582 14481 ft 362 kts
2026-05-08 02:28 35.41728 -95.92165 14012 ft 360 kts
2026-05-08 02:28 35.44236 -95.91740 13510 ft 358 kts
2026-05-08 02:28 35.46694 -95.91321 13013 ft 355 kts
2026-05-08 02:29 35.49130 -95.90906 12538 ft 352 kts
2026-05-08 02:29 35.51516 -95.90499 12081 ft 349 kts
2026-05-08 02:29 35.53910 -95.90091 11622 ft 346 kts
2026-05-08 02:29 35.56288 -95.89686 11176 ft 343 kts
2026-05-08 02:30 35.58647 -95.89284 10743 ft 341 kts
2026-05-08 02:30 35.60957 -95.88888 10596 ft 329 kts
2026-05-08 02:30 35.63190 -95.88506 10441 ft 319 kts
2026-05-08 02:30 35.65350 -95.88140 10304 ft 309 kts
2026-05-08 02:31 35.67449 -95.87831 10250 ft 297 kts
2026-05-08 02:31 35.69481 -95.87546 10265 ft 292 kts
2026-05-08 02:31 35.71513 -95.87265 10141 ft 296 kts
2026-05-08 02:31 35.73547 -95.86988 10055 ft 293 kts
2026-05-08 02:32 35.75573 -95.86714 10024 ft 293 kts
2026-05-08 02:32 35.77598 -95.86442 10029 ft 292 kts
2026-05-08 02:32 35.79581 -95.86176 10024 ft 293 kts
2026-05-08 02:32 35.81598 -95.85792 10013 ft 294 kts 10°
2026-05-08 02:33 35.83582 -95.85145 10023 ft 295 kts 12°
2026-05-08 02:33 35.85430 -95.84500 10017 ft 296 kts 13°
2026-05-08 02:33 35.87483 -95.83776 10006 ft 296 kts 13°
2026-05-08 02:33 35.89462 -95.83076 10005 ft 296 kts 13°
2026-05-08 02:34 35.91439 -95.82374 10003 ft 295 kts 13°
2026-05-08 02:34 35.93412 -95.81673 10002 ft 294 kts 13°
2026-05-08 02:34 35.95371 -95.80980 9939 ft 292 kts 13°
2026-05-08 02:34 35.97327 -95.80289 9566 ft 292 kts 13°
2026-05-08 02:35 35.99271 -95.79609 9192 ft 292 kts 13°
2026-05-08 02:35 36.01226 -95.78932 8816 ft 292 kts 13°
2026-05-08 02:35 36.03173 -95.78268 8484 ft 290 kts 13°
2026-05-08 02:35 36.05099 -95.77619 8188 ft 287 kts 13°
2026-05-08 02:36 36.07014 -95.76982 7888 ft 284 kts 13°
2026-05-08 02:36 36.08916 -95.76359 7595 ft 281 kts 12°
2026-05-08 02:36 36.10839 -95.76024 7301 ft 277 kts
2026-05-08 02:36 36.12755 -95.75920 7011 ft 275 kts
2026-05-08 02:37 36.14659 -95.75871 6720 ft 273 kts
2026-05-08 02:37 36.16553 -95.75835 6436 ft 271 kts
2026-05-08 02:37 36.18436 -95.75807 6136 ft 269 kts 360°
2026-05-08 02:37 36.20294 -95.75776 5881 ft 266 kts 360°
2026-05-08 02:38 36.22133 -95.75738 5618 ft 263 kts 360°
2026-05-08 02:38 36.23959 -95.75688 5315 ft 262 kts 359°
2026-05-08 02:38 36.25758 -95.75623 5029 ft 261 kts 360°
2026-05-08 02:38 36.27570 -95.75543 4727 ft 261 kts 360°
2026-05-08 02:39 36.29410 -95.75454 4425 ft 261 kts 360°
2026-05-08 02:39 36.31203 -95.75365 4130 ft 261 kts 360°
2026-05-08 02:39 36.33022 -95.75274 3821 ft 261 kts 360°
2026-05-08 02:39 36.34841 -95.75187 3526 ft 262 kts
2026-05-08 02:40 36.36617 -95.75456 3197 ft 257 kts 332°
2026-05-08 02:40 36.37881 -95.76861 3061 ft 236 kts 294°
2026-05-08 02:40 36.38242 -95.78720 3026 ft 213 kts 273°
2026-05-08 02:40 36.38380 -95.80493 2980 ft 200 kts 272°
2026-05-08 02:41 36.38515 -95.82214 2988 ft 197 kts 272°
2026-05-08 02:41 36.38631 -95.83909 2987 ft 198 kts 264°
2026-05-08 02:41 36.38062 -95.85357 3001 ft 189 kts 217°
2026-05-08 02:41 36.36895 -95.86069 3002 ft 185 kts 202°
2026-05-08 02:42 36.35733 -95.86644 2880 ft 182 kts 201°
2026-05-08 02:42 36.34512 -95.87003 2680 ft 175 kts 191°
2026-05-08 02:42 36.33348 -95.87246 2483 ft 169 kts 189°
2026-05-08 02:42 36.32190 -95.87394 2430 ft 169 kts 186°
2026-05-08 02:43 36.31004 -95.87489 2350 ft 172 kts 185°
2026-05-08 02:43 36.29818 -95.87570 2167 ft 170 kts 185°
2026-05-08 02:43 36.28654 -95.87647 1961 ft 164 kts 184°
2026-05-08 02:43 36.27556 -95.87720 1799 ft 153 kts 184°
2026-05-08 02:44 36.26499 -95.87791 1603 ft 149 kts 184°
2026-05-08 02:44 36.25483 -95.87859 1401 ft 143 kts 184°
2026-05-08 02:44 36.24503 -95.87924 1240 ft 141 kts 182°
2026-05-08 02:44 36.23516 -95.87989 1078 ft 143 kts 182°
2026-05-08 02:45 36.22525 -95.88053 895 ft 142 kts 182°
2026-05-08 02:45 36.21544 -95.88116 727 ft 140 kts 182°
2026-05-08 02:45 36.20611 -95.88180 666 ft 121 kts 183°
2026-05-08 02:45 36.19916 -95.88229 667 ft 78 kts 183°
2026-05-08 02:46 36.19514 -95.88258 669 ft 37 kts 183°
2026-05-08 02:46 36.19290 -95.88295 666 ft 29 kts 204°
2026-05-08 02:46 36.19181 -95.88375 665 ft 11 kts 216°
2026-05-08 02:46 36.19128 -95.88444 665 ft 11 kts 256°
2026-05-08 02:47 36.19158 -95.88529 667 ft 11 kts 309°
2026-05-08 02:47 36.19205 -95.88602 667 ft 11 kts 306°
2026-05-08 02:47 36.19248 -95.88674 667 ft 10 kts 307°
2026-05-08 02:47 36.19291 -95.88745 667 ft 10 kts 307°
2026-05-08 02:48 36.19332 -95.88813 666 ft 10 kts 307°
2026-05-08 02:48 36.19372 -95.88880 666 ft 10 kts 307°
2026-05-08 02:48 36.19361 -95.88951 667 ft 9 kts 219°
2026-05-08 02:48 36.19309 -95.88999 666 ft 9 kts 217°
2026-05-08 02:49 36.19259 -95.89045 667 ft 9 kts 217°
2026-05-08 02:49 36.19216 -95.89085 667 ft 4 kts 217°
2026-05-08 02:49 36.19191 -95.89089 667 ft 4 kts 163°
2026-05-08 02:49 36.19174 -95.89071 667 ft 1 kts 133°
2026-05-08 02:50 36.19170 -95.89065 667 ft 2 kts 131°
2026-05-08 02:50 36.19165 -95.89059 667 ft 0 kts 130°
2026-05-08 02:50 36.19165 -95.89058 667 ft 0 kts 130°